DELTA 1 DEB, 10227

Orbit data source: Space-Track

DELTA 1 DEB, 10227 is space debris in LEO originally from a launch on Thu, 14 Jul 1977 UTC launched from the Air Force Eastern Test Range (AFETR). Debris objects in space refer to the collection of defunct objects orbiting the Earth. Examples of debris include non-operational satellites, rocket bodies, and fragments generated from explosions, collisions, or faulty payload assembly.

Loading next visibility...
Identifier
10227, 1977-065BE
Orbit
LEO
Country
Flag of USUS
Related business
Manufacturer
Unknown
Mission
Spacecraft
Bus & Motor
Unknown
Mass
Unknown
Launch date (UTC)
1977-07-14 (49 years ago)
Launch vehicle
Unknown
Launch site
Air Force Eastern Test Range (AFETR)
Object type
Payload
Rocket body
Debris
Shape & HBR
Unknown shape, 0.6 m
Radar Cross Section
Medium (>0.1 m² and <1 m²)

Expand to show TLE details & history
Last TLE update: 4 days ago

TLE from 4 days ago
0 DELTA 1 DEB
1 10227U 77065BE  26170.05097399  .00001099  00000-0  33031-3 0  9997
2 10227  28.9559 313.1207 0672749 258.9111  93.5123 13.53259031374932
Epoch: 2026-06-19T01:13Z
TLE epoch observation values (Epoch: 2026-06-19T01:13:24.152Z)
Latitude
-0.00005°
Longitude
27.48447°
Altitude
1,122.583 km
Speed
7.262 km/s
True Right ascension
20h 52m 28s
True Declination
0° 00' 00"
Sunlit
Object was in full shadow at epoch
Visualization orbit readout
Latitude
Unknown
Longitude
Unknown
Altitude
Unknown
Speed
Unknown
Apparent Right ascension
Unknown
Apparent Declination
Unknown
Sunlit
N/A
Visualization observer readout
Local Sidereal Time
04:00:18
Azimuth
Unknown
Elevation
Unknown
Doppler factor
Unknown
Orbital elements
Apogee altitude
1,564.843 km
Perigee altitude
563.483 km
Semi-major axis
7,442.3 km
Eccentricity
0.06727
Inclination
28.9559°
RAAN
313.1207°
Arg. of periapsis
258.9111°
True anomaly
101.14489°
Mean anomaly
93.5123°
Eccentric anomaly
97.33532°
Mean motion
3.38051 °/min
Orbital period
106.49 mins
BSTAR
0.00033031
Loading maneuver chart data...
Computing Atmospheric mass density...

Documentation

Showing up to 5 results
|